| time (UTC) | temp F | wind direction | speed MPH | gust MPH | rain 1hr in | rain 24hr in | rain mn in | humidity % | barometer mb |
| 20260505183044 | 80 | 237 | 7.0 | 17.0 | 0.00 | 0.00 | 0.00 | 42 | 1004.2 |
| 20260505181535 | 80 | 267 | 8.0 | 20.0 | 0.00 | 0.00 | 0.00 | 41 | 1004.5 |
| 20260505180041 | 79 | 144 | 5.0 | 18.0 | 0.00 | 0.00 | 0.00 | 42 | 1004.5 |
| 20260505174534 | 79 | 219 | 7.0 | 22.0 | 0.00 | 0.00 | 0.00 | 43 | 1004.7 |
| 20260505173034 | 78 | 336 | 6.0 | 17.0 | 0.00 | 0.00 | 0.00 | 46 | 1004.8 |
| 20260505171531 | 77 | 113 | 7.0 | 21.0 | 0.00 | 0.00 | 0.00 | 45 | 1005.4 |
| 20260505170036 | 76 | 286 | 6.0 | 21.0 | 0.00 | 0.00 | 0.00 | 46 | 1005.3 |
| 20260505164536 | 76 | 249 | 7.0 | 21.0 | 0.00 | 0.00 | 0.00 | 47 | 1005.8 |
| 20260505163033 | 75 | 223 | 7.0 | 16.0 | 0.00 | 0.00 | 0.00 | 48 | 1006.1 |
| 20260505161533 | 73 | 290 | 6.0 | 13.0 | 0.00 | 0.00 | 0.00 | 49 | 1006.5 |
| 20260505153036 | 72 | 217 | 4.0 | 13.0 | 0.00 | 0.00 | 0.00 | 49 | 1006.9 |
| 20260505151532 | 71 | 215 | 5.0 | 12.0 | 0.00 | 0.00 | 0.00 | 51 | 1007.2 |
| 20260505124540 | 60 | 222 | 3.0 | 9.0 | 0.00 | 0.00 | 0.00 | 65 | 1008.2 |
| 20260505123037 | 59 | 228 | 3.0 | 8.0 | 0.00 | 0.00 | 0.00 | 66 | 1007.5 |
| 20260505121539 | 58 | 174 | 1.0 | 8.0 | 0.00 | 0.00 | 0.00 | 66 | 1007.6 |
| 20260505120043 | 56 | 255 | 1.0 | 7.0 | 0.00 | 0.00 | 0.00 | 69 | 1007.8 |
| 20260505114536 | 54 | 205 | 1.0 | 5.0 | 0.00 | 0.00 | 0.00 | 74 | 1008.0 |
| 20260505113032 | 52 | 0 | 1.0 | 7.0 | 0.00 | 0.00 | 0.00 | 78 | 1008.0 |
| 20260505111608 | 51 | 0 | 1.0 | 8.0 | 0.00 | 0.00 | 0.00 | 82 | 1008.1 |
| 20260505101544 | 49 | 132 | 2.0 | 4.0 | 0.00 | 0.00 | 0.00 | 80 | 1008.1 |
| 20260505100038 | 49 | 135 | 2.0 | 9.0 | 0.00 | 0.00 | 0.00 | 80 | 1008.1 |
| 20260505094540 | 49 | 119 | 2.0 | 5.0 | 0.00 | 0.00 | 0.00 | 79 | 1008.1 |
| 20260505093032 | 49 | 105 | 2.0 | 6.0 | 0.00 | 0.00 | 0.00 | 78 | 1008.0 |
| 20260505091536 | 49 | 117 | 2.0 | 6.0 | 0.00 | 0.00 | 0.00 | 78 | 1008.0 |
| 20260505090034 | 50 | 117 | 1.0 | 6.0 | 0.00 | 0.00 | 0.00 | 76 | 1008.1 |
| 20260505084535 | 51 | 0 | 1.0 | 4.0 | 0.00 | 0.00 | 0.00 | 75 | 1008.1 |
| 20260505083031 | 52 | 115 | 1.0 | 4.0 | 0.00 | 0.00 | 0.00 | 73 | 1008.1 |
| 20260505081531 | 52 | 115 | 1.0 | 9.0 | 0.00 | 0.00 | 0.00 | 73 | 1008.3 |
| 20260505080031 | 51 | 119 | 1.0 | 4.0 | 0.00 | 0.00 | 0.00 | 73 | 1008.3 |
| 20260505074536 | 52 | 265 | 2.0 | 8.0 | 0.00 | 0.00 | 0.00 | 72 | 1008.0 |
| 20260505073039 | 52 | 0 | 1.0 | 8.0 | 0.00 | 0.00 | 0.00 | 72 | 1008.0 |
| 20260505071534 | 52 | 213 | 2.0 | 5.0 | 0.00 | 0.00 | 0.00 | 72 | 1008.2 |
| 20260505070031 | 51 | 257 | 0.0 | 8.0 | 0.00 | 0.00 | 0.00 | 72 | 1008.1 |
| 20260505064538 | 52 | 193 | 1.0 | 6.0 | 0.00 | 0.00 | 0.00 | 71 | 1008.3 |
| 20260505063032 | 52 | 119 | 0.0 | 4.0 | 0.00 | 0.00 | 0.00 | 70 | 1008.4 |
| 20260505061535 | 53 | 157 | 1.0 | 7.0 | 0.00 | 0.00 | 0.00 | 68 | 1008.3 |
| 20260505060045 | 54 | 216 | 1.0 | 4.0 | 0.00 | 0.00 | 0.00 | 66 | 1008.3 |
| 20260505054536 | 53 | 176 | 1.0 | 7.0 | 0.00 | 0.00 | 0.00 | 67 | 1008.3 |
| 20260505053035 | 53 | 150 | 2.0 | 7.0 | 0.00 | 0.00 | 0.00 | 67 | 1008.2 |
| 20260505051539 | 53 | 165 | 1.0 | 8.0 | 0.00 | 0.00 | 0.00 | 66 | 1008.2 |
| 20260505041531 | 53 | 213 | 1.0 | 4.0 | 0.00 | 0.00 | 0.00 | 66 | 1007.9 |
| 20260505040038 | 53 | 157 | 1.0 | 5.0 | 0.00 | 0.00 | 0.00 | 66 | 1007.8 |
| 20260505034535 | 54 | 129 | 1.0 | 4.0 | 0.00 | 0.00 | 0.00 | 66 | 1007.5 |
| 20260505033037 | 54 | 134 | 1.0 | 3.0 | 0.00 | 0.00 | 0.00 | 66 | 1007.3 |
| 20260505031532 | 53 | 136 | 1.0 | 3.0 | 0.00 | 0.00 | 0.00 | 67 | 1007.3 |
| 20260505030033 | 54 | 193 | 1.0 | 2.0 | 0.00 | 0.00 | 0.00 | 64 | 1007.3 |
| 20260505024536 | 54 | 217 | 0.0 | 2.0 | 0.00 | 0.00 | 0.00 | 63 | 1007.3 |
| 20260505023035 | 55 | 213 | 0.0 | 2.0 | 0.00 | 0.00 | 0.00 | 65 | 1007.3 |
| 20260505021534 | 55 | 0 | 0.0 | 1.0 | 0.00 | 0.00 | 0.00 | 62 | 1007.3 |
| 20260505020033 | 56 | 219 | 0.0 | 2.0 | 0.00 | 0.00 | 0.00 | 63 | 1007.3 |
| 20260505014534 | 57 | 0 | 0.0 | 2.0 | 0.00 | 0.00 | 0.00 | 60 | 1007.2 |
| 20260505013048 | 58 | 162 | 0.0 | 3.0 | 0.00 | 0.00 | 0.00 | 57 | 1007.1 |
| 20260505011535 | 57 | 239 | 0.0 | 4.0 | 0.00 | 0.00 | 0.00 | 59 | 1006.9 |
| 20260505010036 | 57 | 186 | 0.0 | 3.0 | 0.00 | 0.00 | 0.00 | 60 | 1006.7 |
| 20260505004534 | 58 | 236 | 0.0 | 3.0 | 0.00 | 0.00 | 0.00 | 59 | 1006.5 |
| 20260505003034 | 59 | 0 | 0.0 | 3.0 | 0.00 | 0.00 | 0.00 | 59 | 1006.3 |
| 20260505001532 | 58 | 149 | 0.0 | 3.0 | 0.00 | 0.00 | 0.00 | 58 | 1006.2 |
| 20260505000049 | 58 | 118 | 1.0 | 3.0 | 0.00 | 0.00 | 0.00 | 62 | 1005.9 |
| 20260504234536 | 59 | 121 | 1.0 | 4.0 | 0.00 | 0.00 | 0.00 | 57 | 1005.7 |
| 20260504233036 | 60 | 138 | 1.0 | 2.0 | 0.00 | 0.00 | 0.00 | 59 | 1005.6 |
| 20260504231532 | 62 | 134 | 0.0 | 3.0 | 0.00 | 0.00 | 0.00 | 56 | 1005.5 |
| 20260504230032 | 64 | 254 | 1.0 | 6.0 | 0.00 | 0.00 | 0.00 | 45 | 1005.3 |
| 20260504224531 | 66 | 281 | 1.0 | 4.0 | 0.00 | 0.00 | 0.00 | 45 | 1005.0 |
| 20260504223035 | 66 | 252 | 3.0 | 9.0 | 0.00 | 0.00 | 0.00 | 44 | 1005.0 |
| 20260504221535 | 68 | 275 | 5.0 | 10.0 | 0.00 | 0.00 | 0.00 | 42 | 1005.0 |
| 20260504220041 | 67 | 268 | 3.0 | 8.0 | 0.00 | 0.00 | 0.00 | 44 | 1005.1 |
| 20260504214541 | 67 | 276 | 2.0 | 9.0 | 0.00 | 0.00 | 0.00 | 47 | 1005.1 |
| 20260504213039 | 67 | 235 | 2.0 | 10.0 | 0.00 | 0.00 | 0.00 | 43 | 1005.1 |
| 20260504211536 | 67 | 286 | 7.0 | 17.0 | 0.00 | 0.00 | 0.00 | 45 | 1005.1 |
| 20260504210034 | 67 | 240 | 5.0 | 14.0 | 0.00 | 0.00 | 0.00 | 47 | 1005.0 |
| 20260504204534 | 67 | 261 | 3.0 | 10.0 | 0.00 | 0.00 | 0.00 | 46 | 1005.0 |
| 20260504203036 | 67 | 298 | 4.0 | 14.0 | 0.00 | 0.00 | 0.00 | 46 | 1005.1 |
| 20260504201539 | 67 | 244 | 6.0 | 16.0 | 0.00 | 0.00 | 0.00 | 47 | 1005.1 |
| 20260504200034 | 66 | 268 | 8.0 | 20.0 | 0.00 | 0.00 | 0.00 | 48 | 1005.3 |
| 20260504194534 | 65 | 267 | 8.0 | 20.0 | 0.00 | 0.00 | 0.00 | 51 | 1005.4 |
| 20260504193031 | 64 | 271 | 11.0 | 24.0 | 0.00 | 0.00 | 0.00 | 53 | 1005.7 |
| 20260504191539 | 64 | 299 | 10.0 | 18.0 | 0.00 | 0.00 | 0.00 | 52 | 1005.7 |
| 20260504190035 | 64 | 291 | 12.0 | 23.0 | 0.00 | 0.00 | 0.00 | 53 | 1005.7 |
| 20260504184542 | 62 | 295 | 7.0 | 17.0 | 0.00 | 0.00 | 0.00 | 59 | 1005.9 |